Temp
-11 -10 -9 -10 -11 -11 -10 -10 -10 -11 -12 -11 -11 -9 -9 -9 -9 -10 -9 -10 -10 -10 -11 -11 -11 -11 -11 -11 -11 -11 -11 -12 -12 -12 -12 -13 -13 -13 -13 -13 -13 -13 -13 -14
-11 -9 -11 -11 -11 -11 -11 -10 -9 -11 -12 -11 -11 -9 -9 -10 -9 -9 -10 -10 -10 -10 -10 -11 -11 -11 -11 -11 -11 -12 -12 -12 -12 -12 -13 -13 -13 -13 -13 -13 -13 -14 -14 -14
-12 -9 -11 -11 -11 -11 -11 -11 -11 -12 -13 -11 -11 -9 -9 -10 -9 -9 -9 -10 -10 -10 -10 -11 -11 -11 -11 -11 -12 -12 -12 -12 -12 -12 -13 -13 -13 -13 -13 -14 -14 -14 -14 -14
-12 -10 -11 -12 -11 -12 -11 -11 -12 -12 -12 -11 -12 -9 -8 -10 -9 -9 -9 -10 -10 -10 -10 -11 -11 -11 -11 -12 -12 -12 -12 -12 -13 -12 -13 -13 -14 -14 -14 -14 -14 -14 -14 -14
-11 -12 -12 -12 -11 -14 -11 -13 -13 -12 -12 -13 -11 -12 -8 -9 -9 -9 -10 -10 -10 -10 -10 -11 -11 -12 -12 -12 -12 -12 -13 -13 -13 -13 -13 -14 -14 -14 -14 -14 -13 -14 -14 -14
-12 -13 -12 -12 -12 -13 -13 -13 -13 -13 -13 -14 -9 -14 -10 -9 -10 -10 -9 -10 -10 -10 -11 -11 -12 -12 -12 -12 -12 -13 -13 -13 -13 -14 -14 -14 -14 -14 -14 -14 -13 -14 -14 -14
-14 -13 -13 -13 -13 -13 -13 -13 -14 -14 -13 -13 -11 -14 -10 -10 -10 -10 -10 -10 -11 -11 -11 -12 -12 -12 -12 -13 -13 -13 -13 -13 -13 -14 -14 -14 -14 -14 -14 -14 -13 -14 -14 -14
-15 -14 -14 -14 -13 -14 -15 -15 -16 -15 -15 -13 -12 -13 -11 -11 -11 -11 -10 -10 -11 -12 -12 -13 -13 -13 -13 -13 -14 -14 -14 -14 -13 -13 -14 -15 -15 -14 -14 -13 -13 -14 -14 -14
-16 -16 -14 -14 -14 -15 -14 -15 -13 -16 -16 -16 -15 -13 -12 -11 -11 -10 -11 -11 -12 -12 -13 -13 -14 -14 -14 -14 -14 -14 -14 -14 -14 -14 -14 -15 -15 -15 -15 -14 -14 -14 -14 -15
-16 -17 -15 -15 -15 -15 -15 -15 -16 -15 -16 -16 -15 -15 -13 -12 -12 -12 -12 -12 -12 -13 -14 -14 -14 -15 -15 -15 -14 -14 -14 -14 -14 -15 -14 -15 -15 -15 -15 -15 -15 -15 -15 -15
-17 -17 -16 -17 -16 -15 -16 -17 -16 -16 -17 -16 -16 -15 -15 -14 -13 -13 -13 -13 -12 -13 -13 -14 -14 -15 -15 -15 -15 -15 -15 -15 -16 -16 -15 -15 -15 -16 -15 -15 -15 -15 -15 -15
-19 -18 -18 -17 -16 -16 -17 -16 -16 -17 -16 -16 -17 -16 -15 -15 -14 -14 -14 -14 -14 -13 -13 -13 -13 -14 -15 -15 -15 -15 -15 -15 -15 -15 -15 -15 -15 -15 -15 -16 -16 -16 -16 -15
-20 -20 -19 -17 -17 -16 -16 -16 -16 -15 -16 -16 -17 -15 -16 -15 -15 -15 -15 -15 -15 -14 -14 -14 -14 -14 -14 -15 -15 -15 -15 -15 -15 -15 -15 -15 -15 -15 -15 -15 -16 -16 -16 -16
-20 -20 -21 -20 -18 -18 -18 -18 -18 -17 -17 -16 -16 -16 -16 -16 -15 -16 -16 -16 -16 -15 -15 -15 -14 -15 -15 -15 -15 -16 -16 -16 -16 -16 -16 -16 -16 -16 -16 -16 -16 -15 -15 -15
-22 -21 -21 -21 -21 -20 -19 -19 -17 -18 -17 -18 -17 -17 -16 -16 -17 -17 -17 -17 -16 -15 -16 -15 -16 -16 -16 -16 -17 -16 -16 -17 -17 -16 -17 -17 -16 -16 -16 -16 -15 -16 -16 -17
-22 -22 -21 -21 -22 -22 -21 -20 -20 -18 -17 -18 -18 -17 -17 -18 -17 -17 -17 -17 -17 -17 -17 -17 -17 -17 -18 -17 -17 -17 -18 -19 -18 -19 -18 -18 -17 -18 -17 -17 -16 -17 -18 -18
-25 -24 -23 -22 -22 -22 -22 -22 -21 -20 -20 -19 -18 -19 -18 -19 -19 -19 -18 -17 -18 -18 -18 -18 -18 -18 -17 -17 -18 -18 -17 -18 -18 -17 -19 -19 -19 -19 -19 -18 -19 -19 -18 -18
-26 -25 -26 -25 -24 -24 -22 -23 -21 -21 -21 -20 -20 -19 -21 -19 -19 -20 -18 -19 -19 -19 -18 -19 -18 -19 -19 -17 -17 -19 -19 -19 -19 -20 -20 -19 -19 -20 -20 -19 -19 -20 -20 -20
-26 -26 -26 -26 -25 -24 -24 -22 -22 -22 -21 -20 -19 -20 -20 -21 -20 -20 -20 -21 -20 -21 -20 -20 -21 -21 -21 -19 -19 -20 -21 -21 -22 -21 -21 -21 -21 -20 -20 -20 -20 -20 -21 -20
-26 -27 -27 -25 -26 -25 -25 -23 -22 -23 -22 -21 -21 -21 -21 -21 -21 -21 -21 -20 -20 -21 -22 -22 -22 -22 -22 -22 -21 -21 -21 -21 -21 -22 -22 -22 -22 -21 -21 -21 -21 -21 -22 -21
-27 -26 -26 -25 -26 -25 -25 -24 -24 -24 -23 -22 -22 -22 -22 -22 -21 -21 -22 -21 -21 -23 -23 -23 -23 -22 -22 -22 -22 -22 -22 -23 -23 -23 -23 -23 -23 -22 -22 -22 -22 -22 -23 -23
-28 -27 -27 -26 -25 -25 -25 -25 -25 -24 -24 -23 -23 -23 -23 -23 -23 -23 -23 -23 -23 -23 -23 -23 -23 -23 -23 -23 -23 -23 -24 -24 -23 -23 -23 -23 -23 -23 -23 -23 -23 -23 -23 -23
-28 -28 -27 -27 -26 -26 -26 -25 -25 -24 -24 -24 -24 -23 -23 -23 -24 -24 -23 -23 -23 -23 -23 -23 -23 -23 -23 -23 -24 -23 -23 -24 -24 -23 -23 -23 -23 -23 -23 -23 -24 -23 -23 -23
-29 -28 -28 -27 -26 -26 -26 -26 -25 -25 -25 -24 -24 -24 -24 -24 -24 -24 -24 -24 -24 -24 -24 -24 -24 -24 -23 -24 -24 -24 -24 -24 -24 -24 -24 -23 -23 -23 -23 -24 -24 -23 -23 -23
-29 -28 -28 -27 -27 -27 -27 -26 -26 -25 -25 -25 -24 -24 -24 -24 -25 -25 -24 -24 -24 -24 -24 -24 -24 -24 -24 -24 -24 -24 -24 -24 -25 -24 -24 -23 -23 -23 -23 -24 -24 -24 -23 -24
-31 -30 -29 -28 -27 -27 -27 -27 -27 -26 -26 -25 -25 -24 -25 -25 -25 -25 -25 -25 -25 -24 -24 -24 -24 -25 -25 -25 -25 -25 -25 -25 -25 -25 -24 -24 -24 -24 -23 -23 -24 -24 -24 -24
Height
5720 5719 5715 5715 5722 5724 5721 5720 5720 5721 5722 5725 5725 5728 5727 5723 5724 5726 5726 5725 5725 5727 5730 5729 5731 5731 5732 5733 5736 5735 5736 5737 5737 5738 5738 5739 5740 5740 5740 5741 5743 5744 5744 5744
5706 5709 5713 5705 5709 5708 5708 5709 5708 5710 5711 5709 5712 5712 5716 5715 5713 5717 5718 5719 5719 5717 5717 5718 5720 5721 5722 5722 5723 5724 5726 5727 5727 5728 5728 5728 5729 5730 5730 5732 5733 5734 5735 5735
5690 5702 5696 5695 5695 5694 5695 5695 5700 5700 5695 5694 5692 5695 5706 5706 5702 5704 5706 5708 5709 5709 5707 5706 5706 5709 5709 5710 5712 5714 5715 5716 5717 5717 5717 5718 5719 5720 5722 5722 5723 5724 5725 5724
5674 5688 5682 5681 5683 5679 5681 5692 5686 5683 5680 5680 5681 5674 5691 5691 5690 5693 5694 5695 5695 5695 5695 5695 5694 5696 5699 5700 5698 5700 5701 5703 5705 5706 5708 5709 5710 5711 5711 5711 5712 5714 5714 5713
5665 5666 5663 5665 5672 5666 5668 5667 5666 5665 5663 5663 5671 5655 5677 5681 5678 5676 5679 5680 5683 5684 5683 5681 5682 5684 5686 5685 5688 5688 5688 5690 5693 5696 5698 5699 5699 5700 5700 5701 5702 5704 5703 5702
5650 5645 5650 5652 5654 5652 5657 5651 5648 5648 5648 5640 5663 5645 5660 5671 5667 5662 5661 5661 5668 5668 5668 5667 5668 5670 5670 5672 5674 5676 5678 5680 5682 5684 5687 5689 5689 5689 5689 5690 5692 5694 5693 5693
5627 5630 5634 5632 5635 5635 5636 5635 5631 5633 5628 5625 5647 5626 5646 5657 5649 5649 5649 5647 5648 5651 5651 5652 5652 5654 5656 5658 5660 5662 5665 5667 5668 5670 5673 5676 5678 5678 5678 5678 5680 5681 5681 5681
5600 5607 5616 5620 5618 5621 5618 5618 5615 5610 5609 5614 5623 5611 5631 5638 5638 5636 5636 5634 5633 5633 5636 5637 5638 5639 5641 5643 5646 5648 5651 5653 5655 5658 5660 5663 5662 5665 5666 5665 5666 5668 5668 5668
5583 5584 5598 5597 5601 5599 5606 5594 5611 5600 5596 5592 5601 5604 5611 5619 5622 5621 5621 5621 5620 5620 5621 5623 5624 5626 5628 5630 5632 5634 5636 5639 5642 5644 5646 5649 5650 5653 5653 5653 5652 5653 5654 5656
5567 5563 5578 5578 5576 5581 5582 5587 5585 5583 5580 5579 5581 5589 5594 5600 5604 5605 5605 5607 5607 5607 5608 5610 5611 5614 5616 5618 5619 5622 5624 5625 5628 5630 5632 5635 5636 5638 5638 5638 5639 5640 5641 5642
5549 5552 5557 5555 5556 5568 5567 5566 5564 5567 5563 5563 5568 5571 5583 5580 5586 5589 5589 5591 5593 5593 5593 5595 5597 5600 5603 5605 5608 5609 5610 5612 5615 5615 5618 5620 5622 5622 5623 5625 5624 5626 5627 5626
5530 5529 5537 5543 5547 5545 5553 5549 5548 5545 5547 5546 5550 5553 5565 5565 5569 5570 5571 5573 5574 5576 5576 5577 5579 5582 5586 5591 5593 5596 5599 5600 5602 5603 5604 5606 5607 5609 5609 5610 5610 5612 5613 5612
5511 5515 5517 5526 5532 5531 5527 5531 5534 5521 5518 5527 5531 5539 5544 5549 5552 5554 5555 5559 5559 5560 5561 5562 5565 5567 5569 5572 5575 5579 5581 5585 5586 5588 5589 5591 5593 5594 5595 5597 5598 5598 5599 5599
5491 5494 5498 5501 5508 5508 5510 5511 5514 5514 5514 5515 5518 5524 5520 5531 5534 5535 5539 5543 5544 5546 5547 5549 5552 5554 5556 5557 5559 5561 5564 5566 5570 5571 5574 5575 5576 5579 5581 5583 5585 5584 5586 5582
5475 5476 5481 5483 5490 5489 5490 5497 5499 5492 5494 5492 5507 5511 5505 5510 5513 5515 5520 5524 5528 5530 5533 5537 5539 5542 5545 5547 5548 5549 5551 5553 5555 5557 5560 5562 5563 5564 5567 5569 5568 5567 5571 5572
5461 5461 5464 5465 5473 5472 5473 5482 5484 5483 5487 5483 5486 5495 5494 5499 5497 5498 5501 5508 5513 5515 5518 5525 5528 5531 5532 5534 5536 5540 5540 5542 5542 5544 5546 5547 5551 5552 5553 5555 5558 5558 5562 5562
5447 5449 5451 5446 5453 5453 5453 5465 5466 5467 5473 5476 5474 5479 5480 5484 5484 5488 5491 5496 5499 5502 5505 5510 5514 5519 5521 5521 5521 5524 5525 5527 5526 5532 5533 5536 5539 5541 5543 5543 5542 5548 5552 5553
5434 5436 5434 5433 5439 5431 5446 5450 5450 5455 5462 5462 5466 5464 5470 5472 5473 5476 5474 5485 5490 5492 5495 5499 5504 5506 5508 5510 5509 5509 5512 5513 5514 5515 5516 5517 5520 5524 5526 5526 5529 5531 5534 5536
5420 5419 5418 5419 5423 5423 5427 5436 5439 5442 5449 5445 5450 5460 5460 5459 5459 5463 5470 5477 5478 5481 5482 5487 5490 5492 5495 5495 5495 5497 5497 5498 5499 5499 5502 5503 5503 5504 5508 5513 5513 5514 5516 5518
5410 5408 5409 5411 5410 5411 5415 5423 5428 5428 5431 5437 5442 5449 5451 5449 5455 5455 5462 5464 5463 5470 5476 5474 5479 5482 5485 5484 5483 5487 5486 5485 5486 5487 5488 5488 5488 5490 5492 5492 5495 5498 5499 5501
5403 5404 5404 5404 5403 5405 5407 5411 5415 5419 5423 5426 5432 5436 5439 5443 5442 5450 5452 5450 5453 5464 5468 5468 5473 5475 5475 5473 5472 5473 5474 5474 5475 5474 5474 5473 5474 5473 5474 5475 5478 5481 5483 5486
5396 5397 5397 5395 5399 5401 5400 5403 5407 5411 5412 5416 5420 5425 5427 5430 5434 5442 5445 5442 5449 5459 5461 5462 5463 5466 5465 5464 5463 5463 5463 5463 5464 5462 5461 5460 5459 5458 5459 5460 5462 5466 5469 5471
5391 5389 5391 5393 5390 5391 5392 5393 5396 5400 5403 5407 5412 5416 5421 5425 5431 5435 5435 5437 5444 5450 5454 5453 5455 5456 5454 5454 5453 5452 5454 5454 5451 5450 5448 5446 5445 5443 5441 5443 5446 5451 5456 5458
5383 5382 5383 5386 5385 5388 5388 5388 5391 5394 5397 5400 5405 5410 5414 5419 5423 5424 5427 5432 5437 5440 5442 5443 5445 5446 5444 5446 5445 5445 5442 5442 5441 5439 5436 5433 5428 5425 5426 5428 5431 5435 5440 5443
5377 5375 5374 5375 5378 5382 5384 5384 5387 5389 5392 5395 5399 5402 5407 5411 5414 5417 5422 5426 5429 5432 5434 5436 5438 5439 5438 5439 5438 5437 5436 5434 5432 5430 5426 5423 5416 5410 5412 5415 5418 5422 5426 5430
5370 5366 5365 5368 5372 5374 5379 5381 5384 5384 5387 5390 5392 5396 5400 5404 5407 5411 5415 5419 5423 5426 5428 5430 5431 5433 5434 5434 5432 5431 5429 5427 5426 5422 5420 5416 5412 5407 5405 5405 5407 5410 5413 5417
Wind_Speed
50 51 53 54 48 46 49 51 52 48 43 40 41 43 44 47 46 45 42 43 44 42 39 42 40 40 39 39 39 37 38 37 36 34 35 37 36 38 39 39 39 40 42 42
55 56 50 56 48 51 52 53 53 48 44 48 46 48 48 50 52 48 49 48 46 44 43 44 43 42 41 41 41 42 41 41 38 35 36 37 39 41 42 41 41 42 43 45
56 54 55 56 53 53 53 55 54 51 54 54 55 57 50 52 55 54 50 52 52 49 46 42 43 42 44 44 41 41 43 44 43 42 40 41 43 42 41 42 44 45 46 48
62 57 57 57 56 57 57 51 52 57 60 60 57 64 52 55 57 57 55 50 51 54 54 48 45 45 45 43 44 45 46 45 45 44 43 43 44 43 45 45 46 45 46 49
61 58 60 58 58 54 59 58 60 62 63 61 60 69 55 54 56 58 56 55 53 51 52 52 48 44 44 47 47 47 48 49 49 47 45 46 49 48 49 49 47 46 46 47
64 61 60 59 57 59 56 58 59 59 59 63 59 55 56 54 57 60 63 65 58 55 54 53 50 49 44 43 43 44 47 49 50 50 48 48 52 51 53 52 50 46 47 46
62 63 61 64 63 62 63 60 59 59 63 66 56 59 54 46 52 52 50 54 56 52 51 47 45 45 44 44 45 46 47 47 48 50 51 50 52 54 57 55 53 50 46 46
63 65 61 61 64 62 60 57 55 63 64 66 59 65 57 53 50 49 49 55 57 55 49 44 42 41 43 44 44 45 44 45 46 48 51 52 55 54 54 57 54 52 53 51
65 65 63 65 64 62 62 66 64 55 57 60 57 59 59 56 56 53 51 54 56 55 51 47 44 44 43 45 45 45 46 45 46 46 48 51 53 56 57 58 59 57 57 56
62 64 58 64 65 65 66 62 60 63 60 62 64 61 58 54 51 52 50 54 56 53 48 43 40 35 39 45 46 45 44 45 46 47 49 50 52 55 58 62 61 55 58 59
65 61 45 42 57 59 60 64 67 68 70 70 67 65 57 59 51 52 50 53 57 59 57 55 49 44 40 41 44 45 46 46 47 50 51 54 54 56 59 59 58 55 60 60
68 72 63 52 53 59 59 62 68 69 69 66 64 61 58 58 55 56 55 55 57 60 58 58 58 54 51 48 49 49 49 49 50 52 54 59 62 61 59 58 58 57 60 60
48 62 65 66 44 46 42 46 56 57 57 63 66 65 66 63 62 62 60 58 61 60 59 61 62 62 62 60 55 55 53 54 52 51 49 55 59 59 60 58 52 51 55 63
60 48 45 54 71 71 59 45 54 63 67 56 59 60 74 68 64 64 63 62 62 61 60 59 57 59 61 57 53 54 51 50 52 49 47 50 53 56 56 53 52 60 63 72
67 70 64 59 55 57 78 58 48 53 58 48 68 53 33 65 64 66 60 65 63 65 59 55 56 50 45 46 45 54 54 41 42 45 47 45 50 52 54 49 54 65 63 41
68 68 73 77 53 49 60 62 62 62 58 50 45 56 32 30 37 57 56 59 47 37 39 43 44 45 43 47 53 52 40 35 37 35 37 39 36 37 41 38 42 36 39 35
58 65 68 76 72 66 60 55 60 69 66 59 57 53 53 43 41 41 42 46 48 47 50 44 46 46 48 48 49 53 56 58 50 56 50 51 42 41 40 43 40 39 48 47
52 53 55 62 69 70 61 49 53 58 60 56 62 49 35 39 41 36 39 37 37 44 48 55 56 45 48 66 59 44 46 47 48 40 38 41 55 50 46 47 45 50 50 56
46 50 59 59 55 64 66 55 42 39 47 56 63 43 39 40 42 46 45 38 32 30 39 35 32 30 27 42 47 38 34 32 32 36 37 41 43 44 47 53 59 61 59 56
15 18 22 17 34 46 45 60 56 47 47 46 47 46 44 46 36 36 39 37 35 29 17 17 17 18 22 27 33 33 38 38 42 39 40 42 47 50 55 59 61 61 61 61
16 18 18 14 21 24 29 33 23 30 38 38 32 31 32 33 38 33 25 30 30 17 17 17 20 21 24 25 27 31 32 33 37 40 42 44 48 49 52 54 60 59 57 59
19 21 25 14 26 31 26 28 26 27 23 24 22 23 21 16 15 17 18 17 20 21 17 21 21 21 21 24 24 26 27 31 34 38 40 44 45 46 49 51 48 44 44 47
21 24 22 17 12 9 20 28 26 23 17 18 23 24 24 22 25 23 18 17 21 21 21 22 21 21 23 25 26 28 32 35 37 41 41 41 44 45 48 47 47 50 48 42
22 27 25 23 21 13 9 5 26 28 25 20 17 17 19 22 18 17 18 17 17 18 19 19 20 22 25 27 28 31 28 39 38 32 30 33 40 43 46 46 47 46 45 45
20 25 31 34 26 20 15 16 6 26 26 28 25 27 25 19 16 16 18 16 17 19 20 22 22 23 26 28 24 25 23 26 26 26 24 25 26 31 36 38 42 45 42 42
17 24 27 32 31 37 25 22 22 17 10 33 35 30 22 23 22 19 19 22 23 21 20 20 24 22 14 11 8 6 8 11 14 15 16 17 16 14 19 33 40 41 39 38
Wind_Direction
267 268 262 269 272 270 265 265 266 266 272 266 266 264 269 272 267 267 261 259 257 258 262 261 259 259 254 252 254 256 258 259 260 265 264 264 263 262 261 262 264 266 267 266
264 261 272 275 269 265 266 267 267 272 275 277 271 260 265 269 274 272 274 270 266 261 256 258 260 257 255 252 250 252 256 257 259 261 262 263 263 263 266 268 269 269 269 269
265 270 268 269 267 265 263 264 267 272 273 271 271 265 264 267 269 275 272 272 272 269 262 257 256 256 253 251 250 250 252 254 255 256 258 259 262 267 272 272 274 274 277 279
266 265 265 267 266 265 264 271 267 265 267 268 270 267 261 273 274 273 275 273 271 271 268 262 256 255 254 254 252 250 252 254 254 253 256 259 261 263 263 266 272 276 279 279
270 265 262 260 265 267 264 265 268 268 267 268 263 268 261 268 272 275 275 275 273 269 266 267 264 258 257 255 253 250 250 252 255 255 252 254 258 260 264 267 271 271 275 279
269 263 262 262 259 258 263 263 267 266 265 263 265 264 265 269 272 267 273 277 273 270 264 263 261 260 257 256 254 254 255 256 257 257 254 253 256 260 262 266 269 270 272 279
263 261 259 257 256 257 257 259 261 263 263 265 268 266 267 264 265 269 273 278 277 269 263 255 252 253 255 254 252 249 248 249 248 250 253 252 253 258 263 264 265 268 274 276
265 260 260 260 260 261 260 261 259 261 262 269 264 261 269 267 265 267 271 272 270 271 264 258 254 251 251 251 250 252 252 249 249 248 247 247 248 253 256 265 266 266 267 267
266 262 260 260 258 256 260 256 267 264 262 261 261 265 262 265 262 267 272 267 262 264 266 266 262 257 252 246 247 246 247 246 247 245 245 246 250 253 255 260 260 265 263 267
265 270 261 257 258 258 260 261 254 252 253 256 261 259 265 268 269 262 263 263 261 261 262 260 258 256 249 245 245 247 247 247 248 247 249 249 249 249 254 257 263 266 269 267
252 248 247 252 257 260 261 256 257 259 257 258 256 258 263 258 257 258 256 256 257 257 263 267 263 257 248 243 245 245 246 248 249 251 254 255 254 253 256 259 262 267 269 266
256 252 252 252 251 253 251 257 260 258 257 259 261 258 257 259 258 252 253 254 256 258 260 264 268 268 264 257 253 253 251 248 249 250 253 254 255 254 251 255 259 263 266 261
246 252 253 242 237 238 230 242 240 241 242 258 260 262 258 257 258 255 256 258 258 258 257 262 265 268 271 269 269 264 261 260 262 256 251 252 252 254 253 251 251 255 261 260
248 239 246 245 239 242 248 240 250 246 250 240 246 260 256 256 255 255 257 260 261 257 259 262 260 264 268 273 272 270 269 266 263 262 255 249 246 248 249 250 250 255 259 251
262 261 256 261 261 251 247 243 229 224 228 235 235 248 255 248 252 251 254 259 258 256 257 255 258 261 256 257 270 265 259 254 253 254 252 254 252 247 247 247 248 246 251 253
251 257 259 258 251 251 254 252 246 238 244 249 231 228 215 230 243 240 233 241 229 240 245 250 253 259 266 264 269 259 264 271 259 259 269 261 259 241 231 235 243 249 264 264
261 262 257 257 260 257 251 258 261 261 259 258 253 265 244 274 260 250 252 252 263 269 273 273 270 270 268 267 272 276 279 281 286 276 280 284 276 265 270 251 264 265 256 262
268 267 269 268 259 262 256 243 256 254 258 261 259 262 249 242 241 240 247 244 253 254 261 266 268 274 275 274 276 284 283 281 282 286 282 277 280 275 268 270 265 264 270 263
273 265 264 268 265 262 261 247 244 251 255 258 258 248 258 254 249 256 264 267 266 271 267 273 278 282 287 284 284 291 288 285 283 282 274 267 258 255 260 258 251 249 248 249
273 278 269 274 270 272 267 262 252 250 247 251 246 246 257 260 259 261 262 267 279 284 255 261 265 270 280 287 290 291 289 287 287 278 274 265 255 253 248 244 243 241 237 240
234 236 258 266 270 264 249 231 234 253 246 245 250 248 246 251 254 260 266 271 272 241 242 252 255 274 276 276 285 289 278 274 267 263 262 260 256 252 252 252 249 251 253 247
242 247 252 232 249 248 254 245 236 231 240 240 242 242 240 239 227 222 217 219 231 225 243 245 250 256 256 277 290 277 268 272 275 274 273 271 266 265 261 257 254 255 261 259
251 256 260 257 197 204 232 228 234 223 227 224 225 227 219 223 218 214 220 226 220 232 239 244 257 254 271 278 277 273 278 287 290 280 273 271 273 271 264 260 256 253 256 256
258 257 249 238 217 220 180 177 214 215 226 237 221 227 222 214 218 218 224 215 236 240 242 259 260 274 280 278 280 283 297 293 287 282 278 280 277 262 253 253 253 249 255 257
267 257 241 240 234 217 229 244 232 209 221 223 224 232 229 205 208 209 215 237 243 243 250 261 266 273 277 274 283 296 292 287 277 274 283 294 295 265 248 250 247 249 252 249
281 277 265 248 250 237 237 253 261 272 232 210 209 220 219 212 209 212 222 231 232 234 251 260 267 265 257 275 278 296 323 335 326 316 292 298 324 334 271 255 249 247 244 236